sat.trackr.live / text

‹ back to catalog

STARLINK-1641

NORAD 46174 · 2020-057BK

PAYLOAD ACTIVE UNKNOWN

§ Identity

Operator
Country
US
Launch date
2020-08-18
Launch site
AFETR
Launch vehicle
Mass (kg)
RCS (m²)

Purposes: comms

External: N2YO · Heavens-Above · Gunter

§ Orbital elements

Epoch: 2026-05-24T18:02:42.045792Z

Period
92.50 min
Inclination
53.0477°
Eccentricity
0.0002125
Mean motion
15.56677038 rev/d
Perigee alt
395.8 km
Apogee alt
398.7 km
Semi-major
6,775.4 km
B*
5.7497e-4
RAAN
277.9880°
Arg perigee
205.1231°
Mean anomaly
154.9676°
Rev number
31,833

§ Raw data

STARLINK-16411 46174U 20057BK  26144.75187553  .00041481  00000+0  57497-3 0  99962 46174  53.0477 277.9880 0002125 205.1231 154.9676 15.56677038318339

JSON: /api/v1/satellites/46174 · /tle

For live sub-satellite position, see the globe view (requires WebGL).

§ Visibility from observer

Set your observer location to see the next 7 days of passes ≥ 10°. The values pass through the URL so the page stays shareable.

No JS? Fill the form by hand. The geolocation button needs JavaScript.